This is the latest recevied weather packets stored in our database for station/object N2OCK. If no packets are shown the sender has not sent any weather packets the latest 10 day(s).
| Time | Temp. | Humidity | Pressure | Rain* | Wind** | Luminosity | Snow |
|---|---|---|---|---|---|---|---|
| 1777941201 | 13.33° C | 74% | 1011.2 hPa | 0 mm | - | 0 W/m² | - |
| 1777940896 | 13.33° C | 74% | 1011 hPa | 0 mm | - | 0 W/m² | - |
| 1777940594 | 13.33° C | 74% | 1011 hPa | 0 mm | - | 0 W/m² | - |
| 1777940292 | 13.33° C | 74% | 1011.1 hPa | 0 mm | - | 0 W/m² | - |
| 1777939989 | 13.33° C | 74% | 1010.8 hPa | 0 mm | - | 0 W/m² | - |
| 1777939686 | 13.33° C | 74% | 1010.8 hPa | 0 mm | - | 0 W/m² | - |
| 1777939384 | 13.89° C | 74% | 1010.9 hPa | 0 mm | - | 1 W/m² | - |
| 1777939080 | 13.89° C | 74% | 1010.9 hPa | 0 mm | - | 2 W/m² | - |
| 1777938776 | 13.89° C | 74% | 1010.7 hPa | 0 mm | - | 3 W/m² | - |
| 1777938474 | 13.89° C | 75% | 1010.7 hPa | 0 mm | - | 5 W/m² | - |
| 1777938171 | 13.89° C | 74% | 1010.7 hPa | 0 mm | - | 8 W/m² | - |
| 1777937867 | 13.89° C | 75% | 1010.6 hPa | 0 mm | - | 11 W/m² | - |
| 1777937563 | 13.89° C | 75% | 1010.4 hPa | 0 mm | - | 15 W/m² | - |
| 1777937260 | 13.89° C | 74% | 1010.6 hPa | 0 mm | - | 18 W/m² | - |
| 1777936957 | 13.89° C | 73% | 1010.5 hPa | 0 mm | - | 23 W/m² | - |
| 1777936654 | 14.44° C | 72% | 1010.4 hPa | 0 mm | - | 28 W/m² | - |
| 1777936350 | 14.44° C | 72% | 1010.6 hPa | 0 mm | - | 34 W/m² | - |
| 1777936046 | 14.44° C | 71% | 1010.5 hPa | 0 mm | - | 37 W/m² | - |
| 1777935745 | 14.44° C | 70% | 1010.4 hPa | 0 mm | - | 43 W/m² | - |
| 1777935444 | 15° C | 69% | 1010.5 hPa | 0 mm | - | 51 W/m² | - |
| 1777935140 | 15° C | 69% | 1010.4 hPa | 0 mm | - | 60 W/m² | - |
| 1777934837 | 15° C | 68% | 1010.6 hPa | 0 mm | - | 69 W/m² | - |
| 1777934534 | 15.56° C | 66% | 1010.4 hPa | 0 mm | - | 79 W/m² | - |
| 1777934230 | 15.56° C | 65% | 1010.5 hPa | 0 mm | - | 89 W/m² | - |
| 1777933926 | 15.56° C | 63% | 1010.5 hPa | 0 mm | - | 99 W/m² | - |
* Rain latest hour (hover to see other rain measurements)
** Current wind speed in m/s (hover to see current wind gust speed)